When you browse on this site, cookies collect data to enhance your experience and personalize the content and advertising you see.
Visit our Privacy Policy to learn more. By continuing to use the site, you agree to this use of cookies and data.
  • In Romania
  • List of Countries
  • For 7 days
  • Water Temperature
  • Satellite Maps
  • Weather Map
  • Weather Widgets
  • user-avatar
    Login

    Hourly Weather Guanare

    Today, 24 February, Sunday

    Time Temperature Precipitation Wind Pressure Humidity
    00:00 +27°C° 0 mm 1 mps 743 mmHg 50%
    01:00 +26°C° 0 mm 1 mps 743 mmHg 51%
    02:00 +26°C° 0 mm 1 mps 743 mmHg 54%
    03:00 +25°C° 0 mm 1 mps 743 mmHg 56%
    04:00 +25°C° 0 mm 1 mps 743 mmHg 58%
    05:00 +25°C° 0 mm 1 mps 743 mmHg 57%
    06:00 +26°C° 0 mm 1 mps 744 mmHg 56%
    07:00 +26°C° 0 mm 1 mps 744 mmHg 55%
    08:00 +29°C° 0 mm 2 mps 745 mmHg 49%
    09:00 +31°C° 0 mm 2 mps 745 mmHg 43%
    10:00 +34°C° 0 mm 3 mps 745 mmHg 37%
    11:00 +36°C° 0 mm 3 mps 744 mmHg 33%
    12:00 +37°C° 0 mm 3 mps 743 mmHg 28%
    13:00 +38°C° 0 mm 3 mps 742 mmHg 24%
    14:00 +38°C° 0 mm 3 mps 741 mmHg 23%
    15:00 +38°C° 0 mm 3 mps 741 mmHg 22%
    16:00 +38°C° 0 mm 2 mps 740 mmHg 21%
    17:00 +36°C° 0 mm 2 mps 740 mmHg 25%
    18:00 +32°C° 0 mm 2 mps 740 mmHg 29%
    19:00 +30°C° 0 mm 1 mps 741 mmHg 33%
    20:00 +29°C° 0 mm 1 mps 741 mmHg 35%
    21:00 +28°C° 0 mm 1 mps 742 mmHg 38%
    22:00 +28°C° 0 mm 2 mps 742 mmHg 40%
    23:00 +27°C° 0 mm 1 mps 742 mmHg 44%

    Tomorrow, 25 February, Monday

    Time Temperature Precipitation Wind Pressure Humidity
    00:00 +27°C° 0 mm 1 mps 742 mmHg 48%
    01:00 +26°C° 0 mm 1 mps 742 mmHg 51%
    02:00 +26°C° 0 mm 1 mps 742 mmHg 54%
    03:00 +25°C° 0 mm 1 mps 742 mmHg 56%
    04:00 +25°C° 0 mm 1 mps 742 mmHg 59%
    05:00 +25°C° 0 mm 1 mps 743 mmHg 58%
    06:00 +26°C° 0 mm 1 mps 743 mmHg 56%
    07:00 +26°C° 0 mm 1 mps 744 mmHg 55%
    08:00 +29°C° 0 mm 2 mps 744 mmHg 48%
    09:00 +31°C° 0 mm 2 mps 745 mmHg 42%
    10:00 +35°C° 0 mm 3 mps 745 mmHg 35%
    11:00 +36°C° 0 mm 3 mps 744 mmHg 31%
    12:00 +37°C° 0 mm 3 mps 743 mmHg 28%
    13:00 +39°C° 0 mm 3 mps 742 mmHg 24%
    14:00 +39°C° 0 mm 3 mps 741 mmHg 23%
    15:00 +39°C° 0 mm 3 mps 740 mmHg 22%
    16:00 +38°C° 0 mm 3 mps 740 mmHg 21%
    17:00 +36°C° 0 mm 2 mps 740 mmHg 25%
    18:00 +34°C° 0 mm 2 mps 741 mmHg 29%
    19:00 +30°C° 0 mm 1 mps 741 mmHg 33%
    20:00 +30°C° 0 mm 2 mps 742 mmHg 38%
    21:00 +29°C° 0 mm 2 mps 742 mmHg 43%
    22:00 +28°C° 0 mm 2 mps 743 mmHg 48%
    23:00 +27°C° 0 mm 2 mps 743 mmHg 51%

    Day after tomorrow, 26 February, Tuesday

    Time Temperature Precipitation Wind Pressure Humidity
    00:00 +27°C° 0 mm 2 mps 743 mmHg 54%
    01:00 +26°C° 0 mm 1 mps 743 mmHg 58%
    02:00 +26°C° 0 mm 1 mps 743 mmHg 58%
    03:00 +25°C° 0 mm 1 mps 743 mmHg 58%
    04:00 +25°C° 0 mm 1 mps 743 mmHg 59%
    05:00 +26°C° 0 mm 1 mps 743 mmHg 57%
    06:00 +27°C° 0 mm 1 mps 744 mmHg 55%
    07:00 +27°C° 0 mm 1 mps 744 mmHg 53%
    08:00 +30°C° 0 mm 2 mps 745 mmHg 48%
    09:00 +32°C° 0 mm 2 mps 745 mmHg 43%
    10:00 +35°C° 0 mm 3 mps 745 mmHg 38%
    11:00 +36°C° 0 mm 3 mps 744 mmHg 35%
    12:00 +37°C° 0 mm 3 mps 743 mmHg 32%
    13:00 +39°C° 0 mm 3 mps 742 mmHg 28%
    14:00 +38°C° 0 mm 3 mps 741 mmHg 28%
    15:00 +38°C° 0 mm 3 mps 740 mmHg 28%
    16:00 +38°C° 0 mm 3 mps 740 mmHg 27%
    17:00 +36°C° 0 mm 2 mps 740 mmHg 32%
    18:00 +34°C° 0 mm 2 mps 741 mmHg 36%
    19:00 +31°C° 0 mm 2 mps 741 mmHg 41%
    20:00 +30°C° 0 mm 2 mps 742 mmHg 42%
    21:00 +29°C° 0 mm 2 mps 742 mmHg 44%
    22:00 +29°C° 0 mm 2 mps 743 mmHg 45%
    23:00 +28°C° 0 mm 1 mps 743 mmHg 46%

    27 February, Wednesday

    Time Temperature Precipitation Wind Pressure Humidity
    00:00 +27°C° 0 mm 1 mps 742 mmHg 47%
    01:00 +27°C° 0 mm 1 mps 742 mmHg 48%
    02:00 +26°C° 0 mm 1 mps 742 mmHg 50%
    03:00 +26°C° 0 mm 1 mps 742 mmHg 52%
    04:00 +26°C° 0 mm 1 mps 742 mmHg 54%
    05:00 +26°C° 0 mm 1 mps 743 mmHg 53%
    06:00 +27°C° 0 mm 1 mps 743 mmHg 52%
    07:00 +27°C° 0 mm 1 mps 744 mmHg 52%
    08:00 +29°C° 0 mm 2 mps 744 mmHg 47%
    09:00 +32°C° 0 mm 2 mps 744 mmHg 43%
    10:00 +35°C° 0 mm 2 mps 745 mmHg 39%
    11:00 +36°C° 0 mm 2 mps 743 mmHg 36%
    12:00 +37°C° 0 mm 2 mps 742 mmHg 32%
    13:00 +39°C° 0 mm 2 mps 741 mmHg 28%
    14:00 +38°C° 0 mm 2 mps 740 mmHg 29%
    15:00 +38°C° 0 mm 2 mps 740 mmHg 29%
    16:00 +38°C° 0 mm 2 mps 739 mmHg 29%
    17:00 +36°C° 0 mm 2 mps 739 mmHg 33%
    18:00 +34°C° 0 mm 2 mps 740 mmHg 37%
    19:00 +31°C° 0 mm 2 mps 740 mmHg 42%
    20:00 +30°C° 0 mm 2 mps 741 mmHg 41%
    21:00 +30°C° 0 mm 2 mps 741 mmHg 41%
    22:00 +30°C° 0 mm 2 mps 742 mmHg 41%
    23:00 +29°C° 0 mm 1 mps 742 mmHg 43%

    28 February, Thursday

    Time Temperature Precipitation Wind Pressure Humidity
    00:00 +29°C° 0 mm 1 mps 742 mmHg 46%
    01:00 +29°C° 0 mm 1 mps 741 mmHg 48%
    02:00 +28°C° 0.1 mm 1 mps 742 mmHg 52%
    03:00 +28°C° 0.1 mm 1 mps 742 mmHg 55%
    04:00 +27°C° 0.1 mm 1 mps 742 mmHg 59%
    05:00 +27°C° 0 mm 1 mps 742 mmHg 59%
    06:00 +28°C° 0 mm 1 mps 743 mmHg 60%
    07:00 +28°C° 0 mm 2 mps 743 mmHg 60%
    08:00 +29°C° 0 mm 2 mps 744 mmHg 55%
    09:00 +31°C° 0 mm 2 mps 744 mmHg 49%
    10:00 +34°C° 0 mm 2 mps 744 mmHg 44%
    11:00 +35°C° 0 mm 2 mps 743 mmHg 40%
    12:00 +36°C° 0 mm 2 mps 742 mmHg 37%
    13:00 +37°C° 0 mm 1 mps 741 mmHg 33%
    14:00 +37°C° 0 mm 1 mps 741 mmHg 32%
    15:00 +37°C° 0 mm 1 mps 740 mmHg 31%
    16:00 +37°C° 0 mm 1 mps 740 mmHg 29%
    17:00 +35°C° 0 mm 1 mps 740 mmHg 33%
    18:00 +33°C° 0 mm 1 mps 740 mmHg 38%
    19:00 +31°C° 0 mm 2 mps 741 mmHg 42%
    20:00 +30°C° 0 mm 2 mps 741 mmHg 42%
    21:00 +30°C° 0 mm 2 mps 742 mmHg 43%
    22:00 +29°C° 0 mm 2 mps 742 mmHg 44%
    23:00 +29°C° 0 mm 1 mps 742 mmHg 45%

    1 March, Friday

    Time Temperature Precipitation Wind Pressure Humidity
    00:00 +29°C° 0 mm 1 mps 741 mmHg 46%
    01:00 +28°C° 0 mm 1 mps 741 mmHg 47%
    02:00 +28°C° 0 mm 1 mps 741 mmHg 49%
    03:00 +28°C° 0 mm 1 mps 741 mmHg 52%
    04:00 +28°C° 0 mm 1 mps 741 mmHg 54%
    05:00 +28°C° 0 mm 1 mps 742 mmHg 55%
    06:00 +28°C° 0 mm 1 mps 743 mmHg 56%
    07:00 +28°C° 0 mm 2 mps 743 mmHg 56%
    08:00 +30°C° 0 mm 2 mps 744 mmHg 51%
    09:00 +32°C° 0 mm 2 mps 744 mmHg 46%
    10:00 +35°C° 0 mm 2 mps 744 mmHg 41%
    11:00 +36°C° 0 mm 2 mps 743 mmHg 38%
    12:00 +38°C° 0 mm 2 mps 742 mmHg 34%
    13:00 +39°C° 0 mm 2 mps 741 mmHg 30%
    14:00 +39°C° 0 mm 2 mps 740 mmHg 30%
    15:00 +39°C° 0 mm 2 mps 740 mmHg 29%
    16:00 +39°C° 0 mm 2 mps 739 mmHg 29%
    17:00 +37°C° 0 mm 2 mps 739 mmHg 33%
    18:00 +34°C° 0 mm 1 mps 740 mmHg 36%
    19:00 +32°C° 0 mm 1 mps 740 mmHg 40%
    20:00 +32°C° 0 mm 1 mps 741 mmHg 41%
    21:00 +31°C° 0 mm 1 mps 741 mmHg 43%
    22:00 +31°C° 0 mm 1 mps 742 mmHg 44%
    23:00 +30°C° 0 mm 1 mps 742 mmHg 46%
    Show more